{"data":{"norad_id":62170,"intl_designator":"2024-225H","name":"STARLINK-32538","alt_names":[],"object_type":"PAYLOAD","status":"ACTIVE","operator":null,"country":"US","launch_date":"2024-11-30","launch_site_code":"AFWTR","launch_vehicle":null,"mission":null,"orbit_class":"UNKNOWN","rcs_meters":null,"size_class":null,"mass_kg":null,"dimensions":null,"purposes":["comms"],"wikipedia_slug":null,"has_3d_model":false,"image_url":null,"decayed_at":null,"tle_current":{"epoch":"2026-09-21T22:00:03.000096Z","epoch_age_seconds":59186,"freshness":"FRESH","line1":"1 62170U 24225H   26264.91670139  .00004289  00000+0  33105-3 0  9994","line2":"2 62170  70.0006  29.8189 0005512 288.4096 113.7966 15.02301489  5672","mean_motion":15.02301489,"eccentricity":0.0005512,"inclination_deg":70.0006,"raan_deg":29.8189,"arg_perigee_deg":288.4096,"mean_anomaly_deg":113.7966,"bstar":0.00033105,"rev_number":567,"period_min":95.852930356777,"perigee_km":555.97726128209,"apogee_km":563.62564463263,"semimajor_km":6937.9384529574,"source":"CELESTRAK","updated_at":"2026-09-22T09:00:49.535538Z"}}}